Aérodrome :
LOGIN :

S'inscrire | Disclaimer

   EN    FR    IT 

 










Légende :    VFR   VFR Marginal   IFR   IFR Intensif   IFR Très Intensif
Visi : 
Plafond : 
>= 8 km
>= 3000ft
5 à 8 km
1000 à 3000 ft
1500m à 5 km
500 à 1000 ft
800 à 1500m
200 à 500 ft
< 800m
< 200 ft
Symboles :   Orages  Brouillard  Fortes neiges  Fortes précipitations  Vent > 20 kt
SIGMETs :   Divers  Orages  Givrage  Turbulence  Onde Orograph.  Cendres Volcan.






- Altitude de l'aérodrome : 13 ft
- Code IATA : CEQ


LFMD - Cannes Mandelieu

DERNIER METAR :
  • 282200Z AUTO VRB02KT CAVOK 16/15 Q1019

METARs EXPIRÉS :
  • 282130Z AUTO VRB03KT CAVOK 16/16 Q1020
  • 282100Z AUTO VRB01KT CAVOK 17/16 Q1020
  • 282030Z AUTO 00000KT CAVOK 17/16 Q1020
  • 282000Z AUTO VRB03KT CAVOK 17/16 Q1020
  • 281930Z AUTO VRB02KT 9999 ///CB 18/17 Q1020

Prévision TAF périmée.
ATIS : +33 4 93 48 73 23



MET'MAP, la Météo Aéronautique d'un coup d'oeil ! - Copyright ORBIFLY Décembre 2007 - Disclaimer

ORBIFLY MET'MAP TEAM :

Programmation & Développement : Alexandra Zaïnal
Sur une idée originale de : Baudouin d'Aumeries
Assistance à la programmation : Marc-Olivier Méhu
Soutien technique & logistique : Manuel Goepfert

Contact : metmap@orbifly.com




SOURCES & CREDITS :

   NOAA